Wetbulb
59.59 59.71 58.91 58.75 58.40 58.51 58.44 58.89 59.73 60.16 60.44 60.76 60.93 61.12 61.40 61.89 61.67 60.16 54.20 63.28 63.37 76.41 75.98 73.48 73.16 73.21 72.06 66.87 67.95 67.99 60.86 58.27 58.51 58.33 59.40 64.97 62.90 64.67 64.74 62.66 63.20 63.62 65.02 67.43 70.36
59.77 59.04 58.92 58.36 58.17 58.30 58.44 58.95 59.40 59.69 60.15 60.47 60.58 61.00 61.47 61.67 59.29 55.97 65.19 70.75 71.06 77.53 71.98 71.54 70.48 70.40 66.66 65.54 65.00 62.87 60.09 59.31 62.78 63.26 62.77 64.01 63.28 62.92 61.96 61.76 61.34 63.20 66.79 69.14 69.75
59.59 58.77 58.44 58.25 57.95 58.06 58.21 58.65 58.99 59.50 59.79 60.12 60.56 60.95 61.66 61.74 56.71 59.12 70.61 71.17 72.43 76.48 73.68 71.97 72.24 68.25 64.63 65.14 64.07 63.29 59.45 62.07 63.29 64.77 65.67 63.89 61.83 63.29 61.88 60.21 62.58 62.29 65.63 68.13 68.81
59.13 58.57 58.07 57.57 57.48 57.85 58.10 58.53 58.50 59.20 59.46 59.79 60.52 61.33 62.05 60.46 55.46 67.00 74.87 73.13 76.33 73.62 72.62 69.92 67.53 64.20 63.63 61.75 65.09 61.53 63.85 63.25 64.16 64.39 64.56 63.06 63.14 60.32 61.01 61.97 64.40 65.78 67.71 68.00 67.88
58.40 58.03 57.38 57.36 56.78 57.18 57.66 58.40 58.14 58.72 59.17 59.69 60.50 61.37 60.74 55.67 55.93 69.91 74.57 74.40 73.89 73.27 70.56 67.49 65.92 65.02 62.67 63.98 64.11 62.06 63.34 64.36 64.50 63.89 64.55 64.13 61.58 59.99 60.73 63.98 65.59 67.04 67.60 67.67 67.70
57.90 57.08 56.94 56.49 56.71 56.64 57.21 57.68 58.04 58.73 59.09 59.83 60.58 61.79 59.19 54.05 70.03 72.33 72.28 71.35 72.15 69.44 68.21 68.65 67.43 67.42 64.49 62.81 62.61 64.20 64.15 63.32 63.60 63.41 63.04 61.65 60.28 60.96 60.91 64.67 65.11 66.30 66.58 67.48 67.50
57.81 56.95 56.30 56.40 56.22 56.37 56.58 56.72 57.92 58.50 58.93 59.71 60.95 61.65 56.94 53.80 71.40 74.84 71.86 70.04 71.52 68.42 66.99 70.45 69.43 65.70 64.69 62.00 64.73 62.72 59.48 62.85 63.37 63.08 61.50 63.15 58.85 58.43 62.01 64.11 64.16 65.30 66.02 66.66 67.17
57.58 56.96 56.14 55.55 55.42 55.78 56.78 57.21 57.33 57.93 58.93 59.86 61.28 60.56 51.23 63.63 72.40 71.73 73.06 71.26 71.53 70.62 69.51 70.62 70.61 66.97 64.34 64.63 63.20 60.56 60.62 55.38 61.89 62.75 61.65 61.81 56.04 59.69 62.41 62.74 63.10 64.19 65.19 65.94 65.16
57.33 56.75 55.96 55.06 55.35 56.36 56.35 56.43 57.40 58.68 59.38 60.53 59.40 57.43 50.56 69.08 67.96 70.90 71.49 69.99 70.19 70.02 71.31 70.84 68.10 64.15 63.78 60.66 57.47 58.57 54.39 55.70 57.58 63.03 61.39 60.43 57.14 60.64 62.30 61.85 62.88 63.58 64.43 65.23 65.97
57.17 56.59 55.86 54.67 55.61 56.13 55.36 56.04 58.50 58.78 60.11 61.03 61.26 53.58 53.61 57.32 66.21 69.39 71.94 71.82 68.99 68.04 67.09 66.30 64.51 61.37 60.99 58.76 51.91 53.20 53.88 56.15 56.53 59.92 60.94 58.76 58.24 60.43 61.23 60.38 61.89 62.91 62.75 63.20 65.03
57.01 56.19 55.81 54.59 54.89 55.44 55.64 56.55 55.55 56.40 56.72 50.42 49.73 50.35 54.16 59.79 66.26 66.50 71.27 70.24 69.31 67.34 63.16 64.08 61.51 58.38 59.50 59.54 58.47 57.25 56.28 55.41 58.29 60.79 59.50 58.79 59.03 59.68 61.20 60.53 60.10 61.00 60.98 62.11 63.19
56.70 55.76 55.62 54.82 53.65 54.90 54.91 53.01 56.76 57.85 54.86 56.26 55.10 54.26 56.65 59.47 57.96 64.43 71.62 66.21 65.43 61.78 62.06 60.38 58.62 61.46 62.10 60.89 58.80 57.35 55.87 55.59 58.51 60.48 59.77 58.85 58.62 60.71 61.06 61.07 61.57 61.69 61.84 61.94 62.50
56.36 55.47 55.04 54.34 53.24 53.97 54.81 55.45 59.70 59.09 54.44 54.84 56.28 55.59 55.47 56.81 54.36 61.15 67.87 66.17 63.46 60.56 60.32 58.78 60.10 61.26 60.17 58.58 56.95 57.39 56.08 56.09 56.06 58.96 58.49 58.25 57.28 58.33 60.78 61.75 62.34 62.80 63.41 63.50 63.31
55.77 55.20 54.32 53.51 51.78 54.46 56.91 57.32 58.11 59.13 52.50 53.01 53.11 54.92 54.71 55.24 52.60 62.80 68.79 64.80 60.44 58.55 59.83 59.47 60.69 59.07 58.21 56.99 57.99 54.71 59.14 58.60 57.84 55.39 53.12 57.86 52.02 56.03 59.53 59.76 60.65 61.77 62.81 63.34 64.04
54.79 54.20 53.64 53.17 54.64 56.63 57.84 57.60 57.49 56.62 44.11 54.14 51.32 54.84 53.46 53.83 54.74 58.40 67.30 62.56 58.28 59.03 59.24 57.91 58.68 58.31 57.43 56.49 59.08 56.56 59.51 58.89 57.05 55.57 54.43 53.97 53.04 56.02 58.65 58.02 60.06 61.73 62.69 63.80 65.11
54.08 53.35 53.16 51.83 52.84 55.88 56.98 58.49 57.30 52.47 45.47 50.16 50.54 49.68 49.82 51.80 53.06 58.70 61.38 63.11 62.35 58.93 59.89 59.45 60.35 59.24 58.26 59.83 60.09 61.10 58.49 57.29 56.58 54.81 50.80 51.68 52.49 54.70 56.82 58.79 60.88 62.46 63.49 64.40 65.19
53.01 52.14 52.91 55.69 55.05 57.67 57.20 57.92 53.42 49.22 55.29 51.75 48.45 49.55 49.81 49.96 50.94 54.36 55.88 56.39 54.41 52.46 53.72 56.98 57.76 58.23 61.16 58.23 60.18 58.78 54.70 50.65 48.59 49.78 48.84 53.50 52.39 55.84 59.36 61.13 62.73 62.71 63.76 64.98 65.90
51.77 51.81 53.88 55.91 57.48 56.79 58.06 56.69 48.89 52.53 53.52 56.24 50.90 47.48 48.51 49.69 50.09 49.59 52.89 53.32 55.62 55.80 53.62 52.00 50.74 54.73 59.12 58.68 57.46 57.27 54.31 50.31 45.09 46.47 49.06 53.14 51.23 56.48 61.00 62.02 63.19 64.45 65.56 66.36 66.71
51.26 55.81 57.91 59.92 57.63 57.25 58.64 52.05 51.91 53.25 55.65 54.84 48.57 47.72 46.71 47.87 48.82 49.18 49.62 49.95 53.11 56.05 53.25 51.27 51.00 55.19 57.76 60.29 60.24 56.27 53.76 54.85 51.82 51.40 50.38 52.79 54.53 57.88 60.16 61.24 64.21 64.09 65.04 65.37 66.48
54.67 59.91 59.31 58.66 58.96 59.06 56.67 48.77 53.65 55.34 56.61 55.32 48.39 48.39 46.72 47.79 47.17 47.59 48.36 51.52 50.57 54.77 58.41 53.70 48.93 53.40 55.71 58.77 58.29 58.12 58.38 52.74 52.57 45.91 45.47 49.91 50.98 54.31 59.24 62.23 63.77 63.42 63.88 65.49 66.11
56.48 60.45 59.76 59.39 58.41 59.15 55.27 54.48 55.44 58.18 57.53 55.61 53.50 50.40 48.55 48.74 48.41 47.51 48.94 50.76 51.51 51.96 56.48 54.37 53.02 51.73 53.30 54.03 54.19 55.38 54.89 53.60 53.42 51.44 47.66 46.69 50.71 57.94 60.32 62.89 63.68 64.43 65.21 65.91 66.75
54.99 57.89 60.52 59.84 57.74 54.64 55.50 54.71 52.36 57.94 59.08 57.23 56.28 54.36 53.58 53.30 52.47 48.11 48.34 50.45 52.66 54.91 51.46 54.42 52.31 48.67 51.11 55.20 54.10 56.27 55.49 55.47 51.05 49.03 51.22 50.50 51.37 59.05 60.40 62.09 65.24 65.34 65.67 66.49 67.31
54.77 56.16 62.96 60.74 56.13 55.87 56.18 56.56 57.36 57.37 58.15 57.33 55.64 56.01 56.04 54.73 53.09 53.51 53.84 56.26 54.04 55.11 54.14 54.48 51.56 48.62 50.35 51.35 54.19 53.40 54.28 54.19 53.60 53.68 50.99 49.25 51.69 59.82 61.62 61.84 65.00 65.84 66.20 66.24 66.74
57.41 57.46 59.77 59.21 56.44 55.66 54.59 55.80 56.00 58.74 58.15 58.72 57.50 56.89 55.65 54.90 55.71 54.51 54.86 56.72 57.33 56.93 59.89 58.41 52.45 51.08 48.82 51.43 53.54 52.64 53.22 53.06 54.16 51.13 51.78 51.88 54.22 57.60 60.62 62.15 64.22 65.93 66.46 66.34 66.63
54.50 52.50 51.78 54.39 55.99 54.69 54.50 55.16 55.46 55.65 58.34 58.95 56.99 56.37 55.90 53.81 54.23 53.75 54.98 56.42 56.24 59.38 55.49 55.19 51.83 52.97 53.68 51.83 52.26 53.51 53.76 52.99 53.38 54.48 52.06 54.38 54.67 57.61 61.98 63.89 65.45 65.84 65.80 65.44 65.71
49.03 47.15 50.07 52.21 53.07 54.01 51.22 54.77 54.90 55.80 56.47 56.03 55.79 56.72 57.48 55.41 56.52 54.88 55.78 55.75 55.42 55.67 54.77 54.72 53.22 51.30 51.35 52.65 53.33 52.76 54.30 54.46 53.95 54.15 54.64 55.29 55.03 61.09 63.34 65.72 65.64 64.85 64.82 65.05 65.69
50.35 50.34 49.62 48.35 52.95 53.28 52.85 53.97 54.83 55.61 57.79 58.62 56.91 55.20 56.33 57.97 59.68 60.00 60.01 57.96 57.18 56.13 54.51 54.60 53.89 51.75 49.61 53.07 53.37 50.94 54.86 55.22 56.37 57.38 56.97 54.59 58.54 61.36 62.89 64.68 65.54 64.82 65.06 65.66 68.89
MSLP
1015.39 1015.14 1014.91 1014.71 1014.61 1014.40 1014.20 1013.96 1013.85 1014.02 1013.97 1013.91 1013.73 1013.48 1013.26 1013.02 1012.61 1012.32 1010.89 1009.12 1009.32 1009.66 1010.09 1010.41 1010.62 1010.62 1010.72 1010.85 1010.80 1010.66 1010.69 1010.45 1010.40 1010.06 1009.85 1010.06 1010.43 1011.26 1011.86 1012.12 1012.64 1013.06 1013.24 1013.37 1014.42
1015.27 1015.04 1014.81 1014.59 1014.45 1014.29 1014.08 1013.79 1013.77 1014.02 1013.94 1013.83 1013.65 1013.44 1013.27 1013.04 1012.41 1011.10 1008.88 1009.07 1009.44 1009.76 1009.93 1010.05 1010.33 1010.64 1010.68 1010.59 1010.77 1010.47 1010.78 1010.49 1010.28 1010.15 1009.75 1010.14 1010.66 1011.41 1011.90 1012.27 1012.90 1013.24 1013.63 1014.00 1014.70
1015.25 1014.94 1014.71 1014.47 1014.33 1014.19 1013.97 1013.68 1013.66 1013.91 1013.86 1013.79 1013.57 1013.26 1013.09 1012.91 1011.77 1009.20 1008.44 1009.03 1009.50 1009.84 1009.83 1009.94 1010.11 1010.54 1010.57 1010.57 1010.52 1010.60 1010.55 1010.48 1010.09 1009.72 1009.39 1010.01 1010.87 1011.43 1011.76 1012.09 1012.33 1012.66 1013.47 1014.07 1014.66
1015.27 1014.92 1014.67 1014.42 1014.26 1014.08 1013.87 1013.69 1013.64 1013.84 1013.80 1013.68 1013.45 1013.15 1012.94 1012.52 1010.84 1008.93 1008.69 1009.01 1009.61 1009.71 1009.66 1009.85 1010.17 1010.32 1010.35 1010.27 1010.47 1010.37 1010.53 1010.27 1009.91 1009.68 1009.63 1010.02 1010.81 1011.62 1012.05 1012.17 1012.26 1012.62 1013.32 1014.04 1014.71
1015.36 1014.95 1014.67 1014.42 1014.20 1013.98 1013.74 1013.59 1013.67 1013.76 1013.72 1013.58 1013.37 1013.13 1012.81 1011.72 1009.83 1009.10 1008.88 1009.26 1009.53 1009.58 1009.51 1009.63 1009.77 1009.82 1009.82 1010.04 1010.32 1010.25 1010.27 1010.18 1009.89 1009.80 1009.93 1010.24 1011.03 1011.79 1012.53 1012.76 1012.54 1013.04 1013.76 1014.18 1014.66
1015.45 1015.05 1014.66 1014.36 1014.08 1013.88 1013.64 1013.47 1013.58 1013.74 1013.57 1013.45 1013.23 1013.05 1012.30 1010.67 1009.52 1009.30 1009.09 1009.35 1009.47 1009.45 1009.46 1009.60 1009.45 1009.69 1010.01 1010.19 1010.26 1010.31 1010.33 1010.09 1010.04 1009.90 1010.17 1010.33 1011.31 1011.77 1012.99 1013.26 1013.35 1013.64 1013.94 1014.36 1014.62
1015.43 1015.10 1014.76 1014.35 1014.08 1013.83 1013.66 1013.52 1013.50 1013.63 1013.48 1013.36 1013.10 1012.77 1011.61 1010.30 1009.50 1009.45 1009.35 1009.68 1009.64 1009.52 1009.55 1009.74 1009.71 1009.92 1010.30 1010.40 1010.49 1010.53 1010.46 1010.31 1010.24 1010.18 1010.22 1010.38 1011.18 1012.27 1013.08 1013.53 1013.71 1013.96 1014.26 1014.56 1014.55
1015.48 1015.09 1014.79 1014.43 1014.14 1013.85 1013.71 1013.49 1013.39 1013.47 1013.38 1013.20 1012.93 1012.47 1010.62 1009.81 1009.58 1009.66 1009.72 1009.89 1009.84 1009.86 1010.16 1010.12 1010.00 1010.10 1010.25 1010.64 1010.63 1010.57 1010.68 1010.29 1010.05 1010.02 1010.30 1010.28 1011.19 1012.57 1013.14 1013.47 1013.74 1014.08 1014.30 1014.46 1014.57
1015.48 1015.06 1014.72 1014.40 1014.09 1013.73 1013.55 1013.34 1013.20 1013.06 1013.23 1012.99 1012.72 1011.80 1010.23 1009.93 1009.81 1009.99 1009.83 1009.73 1009.98 1010.16 1010.29 1010.17 1010.02 1010.17 1010.39 1010.34 1010.57 1010.44 1010.09 1010.26 1010.09 1010.20 1010.08 1010.35 1010.95 1012.13 1012.86 1013.22 1013.39 1013.67 1013.87 1014.20 1014.37
1015.34 1014.99 1014.61 1014.33 1014.02 1013.65 1013.34 1013.21 1013.03 1012.91 1012.92 1012.79 1012.19 1011.56 1010.16 1009.53 1009.59 1009.93 1010.03 1009.90 1009.96 1010.10 1009.91 1009.86 1009.89 1009.92 1010.05 1010.01 1009.61 1009.85 1009.97 1010.15 1010.10 1010.23 1010.25 1010.49 1010.78 1011.72 1012.40 1012.82 1013.01 1013.17 1013.14 1013.67 1013.64
1015.33 1014.91 1014.55 1014.28 1013.98 1013.72 1013.29 1012.99 1013.02 1012.61 1011.92 1010.91 1010.78 1010.20 1009.40 1009.49 1009.53 1009.82 1009.93 1010.02 1010.12 1010.20 1009.84 1009.97 1009.54 1008.99 1008.71 1008.96 1009.25 1009.51 1009.65 1009.70 1010.06 1010.25 1010.42 1010.49 1010.67 1011.23 1011.90 1012.32 1012.56 1012.69 1012.62 1012.60 1012.71
1015.32 1014.82 1014.45 1014.20 1014.09 1013.89 1013.64 1012.24 1011.00 1010.79 1010.42 1010.04 1010.24 1009.92 1009.56 1009.33 1009.32 1009.75 1009.94 1009.79 1009.97 1009.82 1009.86 1009.70 1008.63 1008.26 1008.39 1008.62 1008.93 1009.13 1009.36 1009.50 1010.00 1010.26 1010.44 1010.41 1010.39 1010.67 1011.12 1011.35 1011.64 1011.86 1011.94 1011.87 1011.96
1015.10 1014.66 1014.28 1014.14 1014.08 1013.94 1012.77 1011.19 1010.46 1010.26 1009.99 1009.44 1009.39 1009.13 1008.85 1008.91 1008.58 1009.11 1009.48 1009.52 1009.42 1009.61 1009.33 1008.89 1007.98 1008.02 1008.00 1008.04 1008.40 1008.51 1008.78 1009.10 1009.32 1009.98 1010.24 1010.11 1009.95 1010.23 1010.52 1010.96 1011.23 1011.28 1011.15 1011.31 1011.44
1014.69 1014.35 1014.03 1013.96 1014.41 1012.57 1011.63 1010.66 1010.57 1010.39 1009.51 1008.96 1008.68 1008.42 1008.60 1008.24 1008.28 1008.50 1009.01 1008.89 1009.07 1009.01 1008.74 1008.40 1007.66 1007.48 1007.45 1007.52 1007.78 1007.82 1008.20 1008.60 1009.10 1009.45 1009.57 1009.81 1009.30 1009.46 1009.62 1009.92 1010.30 1010.35 1010.42 1010.42 1010.78
1014.22 1013.93 1013.72 1013.81 1013.02 1012.06 1011.12 1010.69 1010.57 1010.28 1008.78 1008.23 1008.05 1008.10 1008.24 1007.94 1007.84 1008.41 1008.48 1008.86 1008.44 1008.30 1008.69 1007.45 1007.06 1007.05 1006.91 1007.27 1007.71 1008.00 1008.00 1008.46 1008.90 1009.16 1009.47 1009.68 1009.27 1008.56 1009.04 1009.00 1008.87 1009.04 1009.07 1009.47 1009.74
1013.64 1013.26 1013.05 1013.47 1013.24 1011.31 1010.96 1010.51 1010.34 1009.49 1008.08 1007.34 1007.40 1007.69 1007.68 1007.56 1007.46 1007.94 1008.23 1008.32 1008.07 1008.07 1007.94 1007.21 1007.12 1007.04 1006.92 1007.49 1007.71 1007.99 1008.37 1008.54 1008.75 1008.92 1008.77 1009.23 1008.96 1007.41 1007.63 1007.02 1007.51 1007.92 1008.16 1008.44 1008.82
1013.18 1012.52 1012.65 1012.01 1011.34 1010.96 1010.80 1010.30 1009.30 1008.12 1007.74 1007.18 1006.89 1007.10 1006.99 1006.98 1007.13 1007.30 1007.51 1007.80 1007.51 1007.49 1007.10 1006.92 1006.56 1006.76 1007.03 1007.43 1007.97 1007.98 1007.98 1007.68 1007.79 1008.09 1008.43 1009.21 1008.61 1006.27 1006.12 1006.18 1006.25 1006.54 1006.94 1007.33 1008.08
1012.62 1012.34 1012.11 1011.49 1011.08 1010.97 1010.21 1009.41 1008.31 1007.68 1007.16 1006.92 1006.76 1006.87 1006.67 1006.62 1006.85 1006.94 1006.96 1007.21 1007.44 1007.12 1007.01 1006.62 1006.31 1006.41 1006.77 1006.75 1006.86 1007.48 1007.64 1007.47 1007.49 1007.96 1008.22 1008.77 1007.27 1005.48 1005.35 1005.71 1006.18 1006.25 1006.44 1006.66 1007.16
1012.08 1011.95 1011.45 1010.83 1010.79 1010.89 1009.60 1008.75 1008.04 1007.38 1007.01 1006.70 1006.61 1006.45 1006.58 1006.63 1006.62 1006.68 1006.61 1006.31 1006.27 1006.57 1006.49 1006.38 1006.26 1006.16 1006.41 1006.41 1006.64 1007.10 1007.43 1007.43 1007.25 1008.23 1007.93 1006.88 1006.15 1005.66 1005.49 1005.48 1005.94 1006.10 1006.15 1006.37 1006.75
1011.97 1011.06 1010.85 1010.55 1010.56 1010.00 1009.22 1008.73 1008.02 1007.42 1006.92 1006.66 1006.24 1006.28 1006.08 1006.38 1006.67 1006.69 1006.20 1005.15 1005.48 1005.79 1005.63 1005.91 1006.11 1005.86 1006.01 1006.09 1006.58 1006.35 1006.80 1007.03 1007.11 1006.95 1006.53 1005.96 1005.55 1004.95 1004.99 1005.06 1005.69 1006.05 1006.11 1006.46 1006.97
1011.61 1010.83 1010.74 1010.70 1010.51 1009.59 1009.05 1008.55 1007.81 1006.98 1006.90 1006.56 1006.11 1006.11 1005.98 1005.93 1006.02 1006.13 1005.55 1005.10 1004.91 1005.25 1005.61 1005.78 1005.82 1005.71 1005.85 1005.33 1005.29 1006.24 1006.13 1006.50 1006.65 1006.66 1006.34 1005.70 1004.73 1005.04 1004.86 1005.20 1005.37 1005.71 1006.40 1006.81 1007.12
1012.06 1011.09 1010.54 1010.46 1010.22 1010.32 1009.35 1008.90 1008.20 1006.98 1006.72 1006.38 1006.29 1006.04 1005.86 1005.93 1005.81 1005.83 1005.35 1004.99 1004.85 1005.15 1005.37 1005.34 1004.97 1004.75 1004.77 1004.77 1005.41 1005.33 1005.15 1005.29 1005.58 1006.08 1006.48 1006.07 1004.95 1005.00 1005.31 1005.55 1005.64 1005.91 1006.57 1007.30 1007.54
1013.47 1012.17 1010.66 1010.23 1010.27 1010.14 1009.68 1008.89 1008.18 1007.25 1006.71 1006.48 1006.24 1006.15 1006.04 1005.79 1005.76 1005.49 1005.16 1004.68 1004.87 1004.93 1004.95 1005.07 1004.82 1004.34 1004.11 1004.78 1005.06 1004.69 1004.66 1004.93 1005.24 1005.53 1005.55 1005.30 1004.59 1004.97 1005.27 1005.51 1005.79 1006.02 1006.74 1007.72 1008.15
1014.27 1013.15 1011.72 1011.21 1011.53 1010.87 1010.40 1009.31 1008.24 1007.40 1007.08 1006.83 1006.53 1006.29 1006.26 1005.97 1005.66 1005.35 1005.05 1004.74 1004.85 1004.67 1004.65 1005.02 1004.18 1003.55 1003.22 1003.29 1003.77 1004.05 1004.13 1004.57 1004.41 1004.58 1004.40 1004.12 1004.03 1004.61 1004.82 1005.21 1005.74 1006.28 1006.98 1007.64 1008.22
1015.80 1016.13 1015.89 1013.55 1012.55 1012.08 1011.49 1010.46 1009.12 1007.99 1007.54 1007.31 1006.90 1006.59 1006.51 1006.22 1005.80 1005.38 1004.98 1004.68 1004.71 1004.86 1004.69 1004.50 1003.82 1003.65 1003.25 1003.47 1003.62 1003.52 1003.47 1003.86 1003.82 1003.78 1003.91 1003.34 1003.65 1003.90 1004.31 1004.86 1005.43 1006.09 1007.01 1007.65 1008.15
1018.59 1018.64 1017.13 1015.54 1014.24 1013.01 1011.98 1010.92 1010.16 1009.37 1008.65 1007.54 1007.32 1007.22 1006.97 1006.50 1005.59 1005.00 1004.65 1004.40 1004.26 1004.57 1004.34 1004.60 1004.23 1003.98 1003.39 1003.57 1003.43 1003.09 1003.12 1003.24 1003.34 1003.56 1003.51 1003.31 1002.86 1003.51 1004.28 1005.10 1005.44 1006.03 1006.83 1007.36 1007.80
1020.64 1020.31 1019.35 1016.95 1015.41 1014.19 1013.47 1012.70 1011.59 1011.29 1009.40 1008.80 1008.48 1007.86 1006.68 1006.29 1005.85 1005.19 1004.52 1004.12 1004.13 1004.33 1004.31 1004.45 1004.26 1004.17 1003.31 1003.47 1003.28 1002.84 1002.06 1002.19 1002.06 1002.39 1002.35 1002.34 1002.29 1003.38 1004.09 1004.41 1004.75 1005.56 1006.44 1007.05 1007.57
Wind_Speed
13 10 8 6 5 5 6 8 8 7 6 7 7 8 9 9 7 2 6 4 3 10 11 11 6 3 2 3 1 2 3 5 3 2 2 6 4 4 4 10 2 3 5 8 17
13 10 8 6 5 4 6 8 8 7 7 7 7 7 8 8 2 8 7 3 4 11 9 9 7 7 1 1 1 3 3 2 2 4 6 6 4 4 4 9 3 6 8 18 16
14 11 8 6 5 5 5 8 8 7 7 7 7 8 7 6 3 2 4 5 8 7 5 2 11 3 1 1 2 3 3 2 5 10 6 10 5 4 5 7 8 12 18 19 15
15 11 8 6 5 5 6 7 8 7 7 7 8 9 9 2 2 2 2 10 10 6 5 7 6 4 2 2 1 5 1 3 6 6 9 7 8 5 1 5 6 12 20 17 15
15 12 9 6 5 4 6 7 6 6 6 7 8 8 2 2 3 5 11 9 10 7 5 2 3 4 6 5 4 4 5 4 5 11 10 11 8 5 5 5 8 16 18 17 14
15 12 9 6 5 4 6 7 6 6 6 7 7 8 3 1 2 5 10 10 4 4 3 2 4 1 5 2 2 3 4 4 6 8 6 7 5 0 4 6 12 17 15 14 13
16 13 9 7 6 5 5 7 8 5 6 6 6 3 1 4 2 7 4 3 1 2 1 2 4 3 1 3 3 1 4 5 6 5 4 7 6 4 7 8 13 14 12 11 11
16 14 10 7 5 5 7 7 7 4 4 5 5 2 1 4 5 8 7 6 6 6 2 3 6 6 3 2 1 0 1 4 5 6 3 2 3 5 8 10 14 13 11 11 10
17 14 11 7 6 7 6 6 5 4 3 4 2 2 3 0 9 6 1 6 5 4 3 2 1 3 3 1 0 1 2 3 1 2 4 4 4 9 10 11 15 14 13 11 10
17 15 12 8 8 7 7 4 1 2 3 2 2 3 4 3 5 8 1 5 3 3 1 2 2 1 3 3 3 2 1 2 2 2 2 4 6 13 13 13 16 15 14 12 14
17 15 13 9 8 7 2 2 3 4 2 2 2 2 2 5 6 8 5 7 3 0 4 1 3 4 8 10 1 2 2 0 1 2 3 4 6 12 15 13 14 15 15 14 16
17 17 13 10 7 7 3 3 0 3 3 2 4 4 3 2 4 9 11 7 5 5 2 4 6 5 5 4 8 7 3 1 1 0 3 3 5 9 16 16 16 16 16 17 17
18 16 13 9 5 3 4 4 2 1 2 1 3 3 4 7 3 15 16 6 5 6 8 7 6 1 5 4 6 9 11 5 1 5 2 3 4 6 10 10 13 14 15 15 16
21 17 13 6 2 4 4 2 1 3 1 2 2 3 5 5 3 8 17 3 3 4 4 7 4 3 4 8 5 5 4 7 6 6 0 4 1 6 11 15 14 16 15 15 17
24 19 10 7 3 4 3 3 6 3 3 2 3 3 3 7 7 7 14 1 7 6 5 3 6 7 13 5 4 3 1 9 5 3 2 2 3 3 6 13 18 19 19 18 17
25 21 5 4 2 4 4 4 3 3 4 1 4 5 6 2 4 5 9 7 2 5 7 13 4 5 2 6 3 11 7 5 3 1 4 3 4 3 7 16 17 18 19 19 18
27 16 8 4 3 2 3 3 2 4 2 1 2 5 6 6 5 6 10 13 8 5 9 7 7 1 2 7 3 1 2 2 2 1 2 2 5 6 8 8 13 20 20 20 19
26 2 4 4 2 5 3 2 3 1 3 2 2 4 6 7 4 3 8 10 5 7 1 4 4 5 6 5 4 4 1 3 5 3 4 3 6 2 6 3 4 9 13 16 16
15 2 1 2 4 3 1 1 1 2 2 3 1 3 3 2 1 3 5 7 9 13 9 4 5 1 5 5 4 5 6 2 1 2 3 2 4 6 6 6 5 6 11 14 13
2 1 4 5 4 2 1 1 3 3 3 1 2 3 8 5 6 4 8 7 10 15 13 6 7 1 2 4 5 4 9 3 1 3 5 2 5 0 5 6 7 5 3 7 7
1 2 4 3 3 2 1 3 4 4 4 3 2 3 2 5 6 5 4 3 7 9 13 8 6 3 4 6 4 5 4 2 1 1 2 5 3 3 5 2 3 5 7 4 9
3 2 4 3 1 1 2 2 3 4 3 2 3 2 3 5 5 6 8 8 5 10 12 10 7 11 14 2 2 3 3 6 4 3 0 3 4 1 4 2 4 5 9 9 8
3 3 2 3 1 1 2 3 4 3 3 1 2 2 0 4 3 6 4 2 8 8 9 10 8 6 6 5 3 6 4 3 5 3 5 5 3 2 4 5 4 9 10 11 12
2 1 3 3 3 2 3 3 4 2 4 2 2 1 2 3 2 2 2 1 4 7 5 6 5 13 13 8 2 4 5 7 10 5 4 10 6 5 9 9 7 8 9 11 9
6 4 3 3 3 5 2 3 4 3 2 1 1 2 1 4 3 4 4 4 4 6 4 9 9 10 12 5 4 3 6 11 12 9 8 6 5 6 11 11 11 11 11 12 12
5 6 6 4 6 5 1 1 4 5 4 1 3 6 7 6 4 3 4 4 2 3 3 6 3 5 8 7 7 7 5 9 12 9 13 15 20 10 8 9 12 13 13 14 13
4 2 3 4 6 5 4 7 4 13 6 7 7 11 10 9 11 13 11 1 1 0 5 5 4 4 5 4 5 6 14 15 10 8 8 11 7 11 11 15 17 16 15 15 15
Wind_Direction
350 351 343 333 329 310 296 290 293 312 319 332 337 334 331 333 315 207 235 232 131 142 139 140 174 176 119 25 341 126 72 91 94 351 334 158 160 75 81 137 138 129 156 152 147
353 353 346 332 322 302 288 285 294 313 320 330 331 328 330 333 280 247 249 182 132 144 140 157 158 158 342 98 350 60 87 116 70 326 266 180 124 138 149 150 108 106 112 137 145
358 359 357 335 321 299 282 283 292 313 319 327 324 322 321 316 251 253 179 176 163 179 131 128 147 173 128 288 89 100 122 171 20 337 242 147 113 127 162 192 191 177 155 151 152
1 2 1 341 329 305 286 282 293 310 317 322 320 320 318 256 17 5 196 150 136 185 166 163 169 170 147 116 102 127 154 175 19 3 128 123 119 101 31 328 281 168 157 151 157
2 3 357 349 326 305 289 285 288 306 311 312 315 323 278 206 318 48 113 119 157 180 206 205 195 160 155 145 153 159 173 83 57 78 95 100 80 106 52 36 122 148 154 161 165
4 3 357 348 329 301 286 291 305 308 305 307 312 316 259 139 328 111 116 125 169 175 190 250 209 132 98 122 200 117 109 76 65 112 111 102 84 238 83 110 132 156 159 169 172
4 4 355 349 328 304 292 290 298 309 304 307 312 292 248 38 80 124 92 33 327 200 122 4 77 51 104 99 91 129 129 152 165 188 125 143 77 70 130 148 147 165 172 173 182
2 3 359 346 332 312 309 303 303 308 296 289 300 254 248 337 163 124 116 89 75 72 96 58 72 102 59 172 54 209 254 202 175 178 141 206 102 153 153 160 163 175 189 190 197
358 1 359 347 330 322 313 300 283 286 243 276 248 282 135 305 151 150 135 106 90 87 100 97 53 71 145 128 165 156 303 303 261 248 130 219 138 163 167 174 176 186 201 201 208
354 356 355 346 326 326 306 268 252 280 187 197 256 246 132 173 150 158 154 135 79 99 253 342 51 167 131 190 342 184 225 217 279 172 224 187 138 158 177 185 188 194 212 204 210
349 354 352 346 324 331 307 210 204 156 175 217 97 322 44 94 124 166 162 160 133 3 257 349 275 243 245 217 93 265 209 79 294 141 228 214 191 181 182 189 194 205 214 223 224
346 348 348 341 319 326 279 253 303 31 320 223 220 278 257 242 125 162 175 181 189 213 233 214 272 271 288 241 233 231 232 169 132 282 211 202 225 191 188 199 203 202 208 221 229
344 345 338 332 309 254 236 241 23 7 275 268 165 186 197 185 187 177 184 185 197 193 212 260 294 336 271 289 233 237 234 191 339 149 135 234 205 185 203 208 209 223 218 221 227
340 341 332 327 247 160 232 133 332 224 197 95 165 145 157 193 184 153 189 199 164 268 248 252 298 279 309 312 256 276 196 199 160 192 68 320 280 216 204 209 210 218 219 225 224
337 334 314 240 348 201 96 330 144 193 53 88 124 124 155 195 134 172 179 125 229 204 245 300 292 316 316 357 202 2 228 147 120 105 191 182 241 129 188 220 219 215 217 220 227
333 331 293 150 221 265 295 147 202 235 60 108 126 143 155 191 141 119 174 230 246 227 234 273 298 282 6 46 145 124 108 102 105 238 241 102 273 204 183 219 216 221 222 221 218
333 330 169 181 105 326 280 202 260 40 357 104 218 158 169 164 176 180 170 192 207 207 246 284 280 297 145 103 172 271 195 274 211 204 5 143 245 269 221 204 216 209 219 225 217
333 154 214 245 296 329 187 272 56 313 287 20 39 115 192 164 170 148 149 183 224 234 184 314 263 187 169 238 213 182 283 321 326 329 310 162 232 153 205 143 214 232 227 227 224
324 182 206 318 237 257 132 0 0 276 323 323 144 137 188 188 269 182 224 230 203 194 220 207 255 265 215 165 195 150 213 52 264 121 258 218 255 252 235 248 212 239 218 210 212
346 296 22 338 169 257 102 244 261 239 313 208 229 209 190 167 184 204 195 210 216 197 210 209 262 182 130 149 95 249 139 174 208 299 322 238 268 288 167 192 163 142 165 182 188
314 92 27 98 263 65 232 241 263 242 221 220 304 168 214 183 203 187 238 250 224 190 204 169 238 182 226 204 224 155 196 127 154 290 288 306 344 201 200 159 129 125 129 143 151
335 99 9 294 186 16 192 230 309 284 193 228 253 253 209 182 188 219 232 234 152 151 184 202 225 251 257 229 302 269 265 220 249 185 173 312 289 350 247 147 141 132 121 119 124
29 332 20 289 238 317 318 268 260 283 287 318 269 236 213 206 235 222 221 285 152 169 180 171 214 240 233 176 157 229 187 183 120 134 218 274 282 59 172 177 148 137 144 131 129
334 26 21 52 17 36 359 276 270 219 267 260 276 142 2 275 244 267 265 248 194 201 199 200 180 209 228 231 111 197 207 201 224 230 212 241 284 208 189 167 157 134 139 153 142
12 47 26 359 66 342 307 305 288 284 223 278 272 228 273 276 258 252 218 271 161 176 128 195 244 208 227 232 231 270 214 188 213 230 231 289 243 219 194 171 148 131 135 147 147
19 359 350 318 303 298 166 124 311 345 304 144 187 336 307 254 265 290 243 202 238 171 141 142 286 214 234 189 214 237 218 222 224 220 246 262 273 212 165 152 147 143 148 150 149
15 13 308 357 344 313 27 351 354 344 281 292 11 334 312 284 267 284 263 239 155 287 158 182 196 219 234 170 171 237 236 217 228 216 246 243 268 159 168 177 161 153 155 152 149